RH
72 66 70 76 76 75 75 76 72 67 64 61 54 53 51 48 44 42 41 42 42 41 52 61 62 65 68 71 74 78 81 84 87 89 90 91 92 95 94 94 98 97 92
76 82 81 78 72 69 66 63 60 54 48 44 40 35 32 29 28 25 30 35 32 30 32 60 60 66 67 64 64 66 68 70 72 74 76 80 82 84 89 94 95 95 97
81 75 65 59 56 55 52 49 44 36 31 27 22 18 16 18 16 23 38 26 30 21 26 50 57 55 55 54 56 59 60 60 59 61 64 65 66 66 68 73 79 88 91
69 72 67 58 49 47 42 35 30 23 21 18 15 14 15 13 21 42 24 20 29 21 28 30 29 31 42 46 50 50 52 54 60 65 64 62 60 63 68 72 70 71 78
65 64 53 46 37 31 26 23 20 17 19 15 12 14 11 16 41 32 19 25 21 23 33 28 26 22 24 43 45 50 54 62 63 63 60 60 59 63 64 63 61 65 72
59 47 32 27 25 24 22 18 16 15 26 16 12 11 15 23 40 28 16 23 24 29 25 27 20 17 17 40 44 53 59 57 55 56 56 54 56 61 68 69 69 65 64
33 27 26 25 23 22 17 16 15 15 20 21 21 25 19 31 35 32 16 26 22 25 18 17 14 20 16 30 35 53 58 54 56 54 52 54 65 65 65 64 63 62 62
26 26 25 24 21 17 16 17 18 17 19 31 48 61 63 36 36 20 18 19 23 24 22 18 24 24 31 38 30 53 51 50 50 50 54 58 59 63 61 61 62 60 59
26 25 24 22 19 17 17 20 20 20 28 26 40 34 47 58 63 32 27 34 30 33 25 29 30 34 41 39 36 49 49 50 50 54 56 58 61 61 61 60 59 58 58
25 23 21 19 18 17 17 20 20 22 25 33 28 29 33 46 58 61 42 35 36 32 34 35 37 41 37 38 48 45 49 48 51 55 60 64 63 62 61 59 56 55 55
23 21 18 17 16 17 18 19 20 22 24 27 32 37 38 34 42 72 53 46 35 32 36 41 43 39 41 43 45 45 49 50 53 58 62 62 62 61 60 59 61 58 53
22 19 16 16 16 17 19 21 22 23 25 26 27 29 34 45 55 55 53 45 43 37 40 41 42 41 44 46 45 50 50 52 57 58 58 59 61 60 58 57 58 56 57
20 17 16 16 17 20 22 23 25 26 27 27 29 30 34 37 39 44 51 51 50 49 48 48 46 47 44 46 50 51 54 55 53 54 56 59 60 58 58 56 56 55 54
18 17 17 18 20 22 25 26 28 28 28 28 29 31 36 38 46 51 58 64 70 56 53 51 53 53 54 54 54 53 54 54 54 55 56 58 58 57 54 55 54 54 53
18 18 19 21 24 26 28 29 29 30 30 30 31 36 42 46 51 54 57 65 74 81 69 56 59 60 60 59 58 58 58 59 57 58 58 58 54 55 58 61 62 69 66
18 18 20 24 26 29 30 30 30 30 31 33 35 42 45 49 53 56 58 64 72 77 85 65 65 64 63 66 65 63 64 64 64 60 57 58 65 60 56 57 53 54 53
19 20 24 26 28 29 30 29 29 32 37 41 43 46 47 50 54 58 60 66 76 78 81 71 68 69 71 62 61 62 65 68 71 73 73 66 53 52 54 60 67 70 65
21 24 26 28 29 30 28 28 32 39 44 46 47 47 48 50 56 60 64 73 76 76 78 84 85 71 64 64 67 71 80 89 96 76 55 52 51 51 52 56 69 70 68
24 26 28 30 29 30 29 29 42 46 48 47 48 49 51 55 61 65 68 75 78 76 83 80 73 71 72 78 81 94 85 70 61 56 54 56 57 59 60 70 70 71 74
26 28 30 30 30 30 29 39 48 49 49 50 53 56 58 60 64 70 68 66 79 72 74 80 82 82 77 89 84 65 60 61 63 64 66 68 70 66 62 61 61 62 65
29 30 30 29 29 30 33 50 52 54 56 59 63 62 62 68 66 63 64 65 69 80 88 82 78 94 77 65 64 67 69 68 77 86 87 73 68 67 68 68 68 67 67
30 32 31 31 31 31 39 53 58 62 66 66 63 62 64 70 69 68 68 67 67 64 85 97 86 76 71 70 71 73 88 89 82 70 71 81 76 74 75 75 73 73 72
32 32 32 32 32 33 47 57 62 68 66 64 65 66 70 73 80 85 82 69 86 95 75 73 76 75 72 74 98 95 89 91 85 78 86 91 78 77 74 73 72 73 73
34 34 33 33 35 37 54 59 65 68 65 65 67 70 74 85 87 69 80 99 80 75 73 68 67 79 96 81 71 82 96 96 92 80 73 92 79 80 77 78 78 77 78
34 34 35 37 41 48 55 63 67 66 66 68 70 82 87 82 70 73 90 77 71 74 66 74 90 74 68 72 79 96 92 92 84 73 73 80 81 84 84 84 80 77 76
35 36 36 41 48 54 55 67 67 66 68 69 83 79 75 69 67 86 67 69 76 72 95 95 72 75 80 83 80 90 98 94 91 89 67 86 89 89 91 71 69 71 79
Wind_Speed
7 4 3 2 1 1 1 2 2 3 5 7 8 9 10 11 12 13 13 12 11 11 11 12 12 13 14 13 13 13 14 14 13 14 14 16 17 18 19 23 30 32 33
8 6 6 5 4 4 3 2 5 6 8 11 12 12 13 14 14 14 12 9 9 9 9 12 13 12 13 15 15 15 15 15 15 14 14 14 14 15 16 19 22 23 28
11 7 4 4 5 4 4 5 7 8 10 12 14 16 15 14 16 11 6 9 8 11 11 13 13 14 16 17 17 17 17 17 18 18 18 18 18 19 19 19 19 20 22
7 2 3 4 4 5 6 8 10 12 13 16 19 18 16 18 11 2 9 11 10 13 13 12 12 15 18 19 19 20 20 19 18 18 19 19 20 20 20 20 20 22 22
6 2 5 4 4 6 8 10 11 14 14 18 20 17 19 14 2 3 11 10 11 14 14 14 15 19 21 19 21 19 18 18 19 21 21 22 22 22 23 25 25 25 25
9 7 7 6 6 7 9 12 11 11 9 20 19 19 17 8 5 3 17 12 11 15 17 17 23 26 24 20 19 18 17 20 22 22 23 23 23 23 23 23 24 24 27
11 8 8 7 8 10 11 12 11 13 12 21 11 21 9 5 9 7 25 14 17 17 22 20 28 27 28 23 23 18 21 22 21 23 24 24 23 24 25 26 26 27 28
11 9 8 9 10 9 10 12 14 12 11 17 10 4 4 7 4 13 20 19 19 23 21 32 28 28 25 24 30 21 22 23 26 23 23 25 26 27 28 29 30 30 31
10 8 8 8 9 9 10 11 13 14 11 10 8 7 3 3 7 5 12 12 17 16 29 28 28 25 21 27 25 24 25 26 23 27 30 28 27 29 31 32 32 33 34
10 8 8 8 8 8 9 10 10 12 10 9 7 7 5 9 3 5 4 23 12 28 27 27 26 21 30 27 21 25 24 24 30 30 29 27 31 33 33 33 34 35 35
9 8 7 7 7 8 8 8 10 11 11 9 9 8 8 13 10 4 9 10 26 26 27 23 23 31 25 25 25 23 24 29 27 29 30 34 35 34 33 34 35 37 39
8 7 7 7 7 7 8 9 10 10 10 11 11 10 10 4 6 6 6 12 15 23 22 33 24 27 25 27 27 27 29 28 29 31 34 33 34 34 37 38 39 40 41
7 6 6 6 7 7 8 10 11 12 12 12 11 13 10 10 15 17 16 16 10 25 18 17 17 24 27 29 29 31 30 30 34 35 35 35 36 37 37 39 41 42 42
6 5 5 5 6 8 9 11 12 13 13 13 14 12 12 16 17 19 17 17 13 8 24 19 23 20 23 25 28 30 33 34 36 37 37 38 38 39 41 42 42 44 43
6 4 4 5 7 9 11 13 14 15 16 15 15 13 18 17 19 21 21 19 12 10 15 18 17 25 27 29 29 30 32 33 35 36 39 39 42 43 43 42 43 43 44
4 4 5 7 9 11 13 14 15 16 15 16 16 20 19 19 20 21 22 21 19 19 11 31 30 30 29 28 30 34 35 35 37 37 39 38 38 42 46 49 50 50 47
4 5 7 9 11 13 15 16 16 15 17 20 20 21 20 20 22 23 25 23 21 20 14 34 36 35 36 36 34 33 32 33 35 36 35 39 49 50 47 44 44 45 46
5 6 8 11 13 14 16 17 15 18 20 21 22 22 22 23 24 26 25 23 24 26 24 17 32 38 38 39 38 34 29 26 25 35 43 44 42 43 43 42 39 40 41
5 7 10 12 14 15 17 16 17 19 20 21 22 24 25 25 26 26 28 26 25 24 24 27 32 35 38 35 35 28 27 33 32 34 39 39 39 38 37 39 42 45 44
7 9 10 11 13 15 16 17 18 20 21 23 22 21 22 23 25 27 26 25 24 29 29 29 30 31 31 27 27 32 32 30 34 33 35 38 36 38 46 46 43 42 41
8 8 10 13 15 16 17 18 20 22 22 20 22 25 24 22 24 25 29 31 31 28 28 28 27 21 26 26 28 30 31 35 32 28 29 37 34 32 35 38 40 40 40
8 9 12 14 16 17 18 18 20 22 21 24 26 27 27 23 24 28 30 32 32 34 32 19 29 21 25 29 32 32 29 22 16 30 24 36 31 35 35 34 36 37 38
10 12 13 15 17 18 17 18 20 21 22 25 26 29 29 24 28 31 32 34 34 24 30 30 29 28 31 33 31 30 30 27 26 35 29 29 30 32 34 35 36 38 39
11 13 15 16 18 19 18 19 21 22 25 26 27 27 27 29 29 33 35 25 31 29 26 31 30 33 32 35 37 32 33 34 33 32 26 13 30 33 34 35 37 39 40
12 14 16 18 18 19 18 20 22 25 25 26 25 23 24 25 31 35 32 30 29 29 32 31 28 34 36 33 32 32 26 22 15 25 28 25 28 29 33 37 38 33 34
13 15 17 17 17 18 20 20 21 24 23 25 22 22 21 30 34 33 34 30 25 32 31 26 31 32 32 31 30 27 28 19 14 14 24 19 27 23 9 27 26 30 31
Wind_Direction
237 225 172 118 43 38 19 31 322 313 315 316 325 328 325 325 326 328 330 332 335 337 352 358 352 350 347 346 351 356 354 356 347 335 319 304 298 294 290 285 271 264 259
164 144 129 123 101 70 77 1 337 331 329 325 322 324 326 327 327 326 329 341 354 359 357 14 8 9 3 358 355 351 347 348 344 340 337 335 331 323 310 296 287 285 275
146 135 116 88 63 40 4 351 345 337 329 328 328 329 327 328 328 332 358 1 12 7 8 10 12 12 7 357 352 348 343 337 332 327 324 318 315 310 304 302 302 297 289
132 107 127 86 51 29 7 350 348 345 342 340 336 333 332 329 329 6 8 16 11 7 2 358 352 354 356 353 346 337 333 329 329 327 322 319 315 312 308 305 298 292 290
129 206 111 91 55 30 9 4 2 356 349 345 342 333 329 324 319 21 357 7 3 358 353 351 345 342 344 345 340 336 331 328 325 322 319 315 314 309 303 296 292 289 288
117 120 105 81 50 28 19 12 12 10 1 354 341 335 327 321 218 320 4 359 -0 350 347 343 337 333 336 338 338 331 327 323 319 317 314 312 305 301 303 301 296 290 285
118 111 89 68 44 29 27 20 20 12 12 4 354 340 335 322 277 294 335 337 334 337 335 331 332 330 328 330 333 326 321 319 318 315 312 309 305 304 299 296 293 289 286
107 94 73 57 45 39 35 32 30 24 18 18 3 328 348 328 340 303 309 328 315 326 318 325 326 326 327 324 325 316 318 316 314 311 311 306 301 299 297 294 291 288 285
98 83 66 52 44 41 43 38 32 28 17 12 23 37 346 300 325 304 284 291 311 315 316 320 321 320 319 316 320 315 316 314 311 308 306 301 299 297 295 292 290 287 284
92 78 62 52 52 49 45 38 26 25 17 12 8 354 318 289 305 316 292 304 305 314 313 313 317 313 312 315 311 311 310 309 308 306 303 300 299 298 294 291 287 285 282
91 73 63 59 54 47 41 26 19 15 9 359 354 338 318 299 277 275 301 310 311 312 308 312 309 308 310 310 309 307 305 305 302 302 300 300 298 296 292 291 290 288 285
92 76 62 54 46 37 29 19 11 2 355 349 342 340 331 313 311 302 296 305 298 309 310 303 307 307 309 306 303 302 304 301 301 300 299 297 294 295 293 291 289 286 282
93 74 60 48 37 26 16 7 358 352 348 344 339 334 332 330 327 319 307 304 304 307 302 303 299 296 298 299 300 302 301 300 300 299 298 296 294 294 293 291 289 285 281
91 74 53 38 24 12 5 358 352 348 342 336 331 329 328 326 328 325 307 308 310 298 303 299 300 298 299 296 295 296 294 297 299 298 296 295 294 293 293 290 287 283 280
93 74 45 27 15 5 360 353 348 342 335 330 327 324 321 322 326 326 321 305 291 309 307 311 308 306 302 299 298 296 292 290 291 291 293 292 292 291 290 289 289 286 281
86 54 30 15 6 360 354 349 342 337 331 328 325 320 316 317 321 323 321 307 288 280 292 304 305 303 302 298 295 294 288 289 288 286 288 287 289 290 288 286 285 281 278
61 32 16 6 359 353 349 344 338 336 330 326 322 318 309 313 312 314 319 309 288 278 279 296 298 302 304 301 296 291 286 283 282 281 284 291 291 289 287 283 282 281 280
45 23 6 359 354 347 341 340 336 331 327 324 322 316 310 311 306 313 313 300 289 286 279 285 295 301 301 300 299 296 291 288 282 290 289 288 290 288 288 288 287 286 282
33 12 1 356 347 340 337 337 332 328 325 323 323 319 314 312 311 313 309 299 292 294 295 291 292 295 295 300 300 302 303 293 290 286 288 290 288 288 287 287 285 285 282
16 4 356 348 345 338 337 336 331 327 325 323 325 325 323 321 317 315 310 308 308 303 300 293 292 296 297 305 305 303 304 300 295 291 288 286 287 287 287 288 287 284 282
7 356 348 345 343 342 341 332 330 327 327 328 329 327 326 321 316 315 314 315 308 303 297 295 293 306 311 310 307 304 296 297 292 292 292 288 289 287 284 283 282 281 281
357 353 353 346 341 339 336 331 328 326 327 329 330 329 328 319 315 314 313 310 307 302 304 321 309 309 306 305 300 296 295 307 298 302 293 291 291 288 285 282 280 281 279
354 352 347 343 336 336 333 326 325 323 326 328 328 325 320 312 312 313 304 305 300 316 309 309 302 298 297 297 300 305 300 296 293 298 297 287 293 285 285 284 284 283 281
349 344 341 337 332 331 329 325 324 324 324 326 322 319 314 311 314 314 312 319 319 313 311 306 300 297 299 307 305 303 300 296 293 294 296 285 292 286 289 285 284 283 281
343 339 335 333 332 330 332 327 328 326 320 317 317 314 315 312 316 318 322 321 317 313 312 308 306 307 307 306 307 307 304 304 299 300 303 288 290 289 291 285 282 281 282
337 334 331 334 331 331 339 330 328 324 318 315 318 317 319 320 320 322 325 323 320 311 310 321 317 314 310 306 309 306 298 295 297 300 304 297 296 299 294 286 288 289 282